(196070) = 2002 TA65

Discovered at Kvistaberg on 2002-10-02 by Uppsala-DLR Asteroid Survey.

Orbit

Orbit type: Main Belt

Note: WebGL enabled browser required.

epoch2023-09-13.0
epoch JD2460200.5
perihelion date2018-09-26.72437
perihelion JD2458388.22437
argument of perihelion (°)119.29763
ascending node (°)243.58003
inclination (°)12.99720
eccentricity0.1153830
perihelion distance (AU)2.6796178
Tisserand w.r.t. Jupiter3.2
ΔV w.r.t. Earth (km/sec)11.0
semimajor axis (AU)3.0291276
mean anomaly (°)338.80650
mean daily motion (°/day)0.18695090
aphelion distance (AU)3.379
period (years)5.27
P-vector [x]0.97873048
P-vector [y]-0.02283683
P-vector [z]0.20387526
Q-vector [x]-0.03897636
Q-vector [y]0.95498494
Q-vector [z]0.29408265
absolute magnitude14.83
phase slope0.15
uncertainty0
referenceMPEC 2024-A55
observations used842
oppositions18
arc length (days)23049
first opposition used1960
last opposition used2023
residual rms (arc-secs)0.68
perturbers coarse indicatorM-v
perturbers precise indicator003Ek
first observation date used1960-10-17.0
last observation date used2023-11-25.0
computer nameMPCLINUX
JD of orbit computation2456700.301276
perihelion JD uncertainty (days)2.0570E-04
argument of perihelion uncertainty (°)4.9842E-05
ascending node uncertainty (°)2.2381E-05
inclination uncertainty (°)8.2041E-06
eccentricity uncertainty 6.7844E-08
perihelion distance uncertainty (AU)2.0235E-07
Minimum Orbit Intersection Distances (in AU)
for orbit epoch: 2460200.5, reference: E2023-WC7
Mercury2.33627
Venus1.98334
Earth1.70703
Mars1.29625
Jupiter2.17519
Saturn6.04113
Uranus15.1851
Neptune27.0677

Observations

867 total observations over interval: 1960 10 17.17917 – 2023 11 25.251791
These data are available for download (format description).

Date (UT) J2000 RA J2000 Dec Magn Location Ref
1960 10 17.17917 00 05 00.86 +17 41 29.4 19.2   675 – Palomar Mountain MPS 285580
1960 10 17.33750 00 04 55.38 +17 40 00.9 19.4   675 – Palomar Mountain MPS 285580
1960 10 22.17778 00 02 28.85 +16 54 55.5 19.6   675 – Palomar Mountain MPS 285580
1960 10 26.28264 00 00 46.38 +16 16 52.7 19.9   675 – Palomar Mountain MPS 285580
2002 08 15.29373 23 02 19.77 +14 54 54.3 19.1   704 – Lincoln Laboratory ETS, New Mexico MPS 83014
2002 08 15.30990 23 02 19.25 +14 54 55.3 19.6   704 – Lincoln Laboratory ETS, New Mexico MPS 83014
2002 08 15.32608 23 02 18.69 +14 54 55.9 19.4   704 – Lincoln Laboratory ETS, New Mexico MPS 83014
2002 08 15.35843 23 02 17.55 +14 54 56.2 19.3   704 – Lincoln Laboratory ETS, New Mexico MPS 83014
2002 09 03.26080 22 49 34.73 +14 13 26.5 18.1   644 – Palomar Mountain/NEAT MPS 83014
2002 09 03.28216 22 49 33.75 +14 13 20.6 18.1   644 – Palomar Mountain/NEAT MPS 83014
2002 09 03.30316 22 49 32.78 +14 13 15.3 18.2   644 – Palomar Mountain/NEAT MPS 83014
2002 09 11.34199 22 43 38.14 +13 30 28.2 18.1   644 – Palomar Mountain/NEAT MPS 83014
2002 09 11.36540 22 43 37.10 +13 30 19.3 18.1   644 – Palomar Mountain/NEAT MPS 83014
2002 09 11.39145 22 43 35.91 +13 30 09.8 18.5   644 – Palomar Mountain/NEAT MPS 83014
2002 10 02.77218 22 31 02.08 +10 51 34.3 17.9 V 049 – Uppsala-Kvistaberg MPS 63956
2002 10 02.78459 22 31 01.75 +10 51 28.3 18.0 V 049 – Uppsala-Kvistaberg MPS 63956
2002 10 02.79728 22 31 01.43 +10 51 22.4 18.2 V 049 – Uppsala-Kvistaberg MPS 63956
2002 10 06.18384 22 29 47.28 +10 23 56.4 18.8   704 – Lincoln Laboratory ETS, New Mexico MPS 63956
2002 10 06.19949 22 29 46.96 +10 23 48.3 19.1   704 – Lincoln Laboratory ETS, New Mexico MPS 63956
2002 10 06.21511 22 29 46.65 +10 23 41.3 19.9   704 – Lincoln Laboratory ETS, New Mexico MPS 63956
2002 10 06.24644 22 29 45.92 +10 23 26.4 18.8   704 – Lincoln Laboratory ETS, New Mexico MPS 63956
2002 10 08.37643 22 29 07.51 +10 06 18.3 20.1   608 – Haleakala-AMOS MPS 63956
2002 10 08.38723 22 29 07.35 +10 06 12.1 19.9   608 – Haleakala-AMOS MPS 63956
2002 10 08.39809 22 29 07.13 +10 06 07.7 19.5   608 – Haleakala-AMOS MPS 63956
2002 10 09.17932 22 28 54.88 +09 59 48.9 19.4   704 – Lincoln Laboratory ETS, New Mexico MPS 68036
2002 10 09.19508 22 28 54.65 +09 59 41.8 19.9   704 – Lincoln Laboratory ETS, New Mexico MPS 68036
2002 10 09.21091 22 28 54.25 +09 59 34.6 19.6   704 – Lincoln Laboratory ETS, New Mexico MPS 68036
2002 10 09.22670 22 28 54.03 +09 59 26.2 19.6   704 – Lincoln Laboratory ETS, New Mexico MPS 68036
2002 10 09.24238 22 28 53.72 +09 59 19.2 19.3   704 – Lincoln Laboratory ETS, New Mexico MPS 68036
2002 11 10.73765 22 33 31.19 +06 32 03.7 19.3 V 049 – Uppsala-Kvistaberg MPS 71613
2002 11 10.75000 22 33 31.55 +06 32 00.4 19.8 V 049 – Uppsala-Kvistaberg MPS 71613
2002 11 10.76230 22 33 31.92 +06 31 57.8 19.8 V 049 – Uppsala-Kvistaberg MPS 71613
2002 11 17.07239 22 37 15.72 +06 09 10.3 19.6   644 – Palomar Mountain/NEAT MPS 83014
2002 11 17.08316 22 37 16.11 +06 09 08.0 19.5   644 – Palomar Mountain/NEAT MPS 83014
2002 11 17.09410 22 37 16.53 +06 09 06.2 19.8   644 – Palomar Mountain/NEAT MPS 83014
2003 12 01.32966 06 16 25.67 +16 22 21.6 19.1   704 – Lincoln Laboratory ETS, New Mexico MPS 94682
2003 12 01.34260 06 16 25.05 +16 22 18.0 19.7   704 – Lincoln Laboratory ETS, New Mexico MPS 94682
2003 12 01.35551 06 16 24.44 +16 22 14.7 19.8   704 – Lincoln Laboratory ETS, New Mexico MPS 94682
2003 12 01.36846 06 16 23.90 +16 22 11.4 20.0   704 – Lincoln Laboratory ETS, New Mexico MPS 94682
2003 12 01.38136 06 16 23.25 +16 22 07.9 19.7   704 – Lincoln Laboratory ETS, New Mexico MPS 94682
2003 12 22.26081 05 58 27.67 +15 01 26.7 18.5   704 – Lincoln Laboratory ETS, New Mexico MPS 94682
2003 12 22.27365 05 58 27.00 +15 01 24.1 19.3   704 – Lincoln Laboratory ETS, New Mexico MPS 94682
2003 12 22.28650 05 58 26.27 +15 01 20.9 18.9   704 – Lincoln Laboratory ETS, New Mexico MPS 94682
2003 12 22.29912 05 58 25.50 +15 01 18.6 19.0   704 – Lincoln Laboratory ETS, New Mexico MPS 94682
2003 12 22.31173 05 58 24.89 +15 01 16.1 19.2   704 – Lincoln Laboratory ETS, New Mexico MPS 94682
2005 03 07.26818 10 26 49.96 -09 40 34.1 20.3   704 – Lincoln Laboratory ETS, New Mexico MPS 127922
2005 03 07.27985 10 26 49.33 -09 40 32.8 20.0   704 – Lincoln Laboratory ETS, New Mexico MPS 127922
2005 03 07.29151 10 26 48.82 -09 40 25.7 20.3   704 – Lincoln Laboratory ETS, New Mexico MPS 127922
2005 03 07.30387 10 26 48.32 -09 40 22.1 20.4   704 – Lincoln Laboratory ETS, New Mexico MPS 127922
2006 05 06.31312 15 05 18.31 -22 39 00.2 19.1 V G96 – Mt. Lemmon Survey MPS 171375
2006 05 06.32000 15 05 17.98 -22 38 57.6 19.1 V G96 – Mt. Lemmon Survey MPS 171375
2006 05 06.32706 15 05 17.62 -22 38 55.1 19.0 V G96 – Mt. Lemmon Survey MPS 171375
2006 05 06.33397 15 05 17.30 -22 38 52.4 18.9 V G96 – Mt. Lemmon Survey MPS 171375
2006 05 24.16442 14 51 31.91 -20 42 16.5 18.8 R 699 – Lowell Observatory-LONEOS MPS 171980
2006 05 24.18455 14 51 30.97 -20 42 08.5   699 – Lowell Observatory-LONEOS MPS 171980
2006 05 24.20470 14 51 30.12 -20 41 59.8   699 – Lowell Observatory-LONEOS MPS 171980
2006 05 24.22483 14 51 29.26 -20 41 52.1   699 – Lowell Observatory-LONEOS MPS 171980
2007 06 20.34004 21 16 33.13 +00 12 45.8   291 – LPL/Spacewatch II MPS 211044
2007 06 20.36302 21 16 32.97 +00 12 54.5   291 – LPL/Spacewatch II MPS 211044
2007 06 20.38625 21 16 32.78 +00 13 03.4   291 – LPL/Spacewatch II MPS 211044
2008 09 04.39718 04 22 01.35 +25 54 26.4 20.0   704 – Lincoln Laboratory ETS, New Mexico MPS 255191
2008 09 04.41033 04 22 01.91 +25 54 26.8 20.7   704 – Lincoln Laboratory ETS, New Mexico MPS 255191
2008 09 04.42349 04 22 02.55 +25 54 24.9 20.5   704 – Lincoln Laboratory ETS, New Mexico MPS 255191
2008 09 04.43666 04 22 03.13 +25 54 26.7 20.5   704 – Lincoln Laboratory ETS, New Mexico MPS 255191
2008 09 24.40525 04 34 00.05 +25 38 39.9 20.0   704 – Lincoln Laboratory ETS, New Mexico MPS 256606
2008 09 24.41783 04 34 00.38 +25 38 37.4 20.8   704 – Lincoln Laboratory ETS, New Mexico MPS 256606
2008 09 24.44204 04 34 00.86 +25 38 35.4 20.5   704 – Lincoln Laboratory ETS, New Mexico MPS 256606
2008 09 24.45413 04 34 01.12 +25 38 34.0 20.5   704 – Lincoln Laboratory ETS, New Mexico MPS 256606
2008 09 28.45008 04 35 15.90 +25 31 17.8 19.0 V G96 – Mt. Lemmon Survey MPS 257833
2008 09 28.45631 04 35 15.97 +25 31 16.9 19.0 V G96 – Mt. Lemmon Survey MPS 257833
2008 09 28.46260 04 35 16.08 +25 31 16.2 19.0 V G96 – Mt. Lemmon Survey MPS 257833
2008 09 28.46884 04 35 16.15 +25 31 15.4 18.9 V G96 – Mt. Lemmon Survey MPS 257833
2008 10 21.44269 04 34 04.25 +24 20 38.3 19.3 V 691 – Steward Observatory, Kitt Peak-Spacewatch MPS 260538
2008 10 21.46036 04 34 03.84 +24 20 33.9 19.4 V 691 – Steward Observatory, Kitt Peak-Spacewatch MPS 260538
2008 10 21.47803 04 34 03.42 +24 20 29.4 19.4 V 691 – Steward Observatory, Kitt Peak-Spacewatch MPS 260538
2008 10 25.37708 04 32 26.41 +24 03 22.0 19.2 V 691 – Steward Observatory, Kitt Peak-Spacewatch MPS 261389
2008 10 25.39479 04 32 25.88 +24 03 17.1 19.1 V 691 – Steward Observatory, Kitt Peak-Spacewatch MPS 261389
2008 10 25.41250 04 32 25.33 +24 03 12.1 19.3 V 691 – Steward Observatory, Kitt Peak-Spacewatch MPS 261389
2008 10 28.31069 04 30 58.51 +23 49 29.6 18.8   704 – Lincoln Laboratory ETS, New Mexico MPS 261389
2008 10 28.32216 04 30 58.10 +23 49 26.0 19.7   704 – Lincoln Laboratory ETS, New Mexico MPS 261389
2008 10 28.33362 04 30 57.72 +23 49 22.2 20.0   704 – Lincoln Laboratory ETS, New Mexico MPS 261389
2008 10 28.35665 04 30 56.93 +23 49 15.6 20.0   704 – Lincoln Laboratory ETS, New Mexico MPS 261389
2008 10 29.37469 04 30 23.13 +23 44 14.2 19.1 V 691 – Steward Observatory, Kitt Peak-Spacewatch MPS 261389
2008 10 29.39241 04 30 22.50 +23 44 09.2 19.2 V 691 – Steward Observatory, Kitt Peak-Spacewatch MPS 261389
2008 10 29.41012 04 30 21.89 +23 44 04.3 19.1 V 691 – Steward Observatory, Kitt Peak-Spacewatch MPS 261389
2008 11 01.31308 04 28 38.41 +23 29 11.4 19.1   704 – Lincoln Laboratory ETS, New Mexico MPS 263100
2008 11 01.32485 04 28 37.97 +23 29 08.6 19.5   704 – Lincoln Laboratory ETS, New Mexico MPS 263100
